Regional Weather Roundup
Issued by NWS

Home | Current Version | Previous Version | Graphics & Text | Print | Product List | Glossary On
Versions: 1 2 3 4 5 6 7 8 9 10 11 12 13 14 15 16 17 18 19 20 21 22 23 24 25 26 27 28 29 30 31 32 33 34 35 36 37 38 39 40 41 42 43 44 45 46 47 48 49 50
000
ASUS44 KMEG 230710
RWRTN
TENNESSEE HOURLY STATE WEATHER ROUNDUP
NATIONAL WEATHER SERVICE MEMPHIS TN
200 AM CDT SAT AUG 23 2014

TNZ002-004-019-021-049-052-054-088>092-230800-
WEST TENNESSEE

CITY           SKY/WX    TMP DP  RH WIND       PRES   REMARKS
MEMPHIS INTL   CLEAR     80  72  76 SW6       29.99F
NWS MEMPHIS      N/A     78 N/A N/A MISG        N/A
JACKSON        CLEAR     76  73  91 S3        29.99F
DYERSBURG      CLEAR     77  66  69 CALM      29.99S
UNION CITY     CLEAR     75  73  94 S3        29.97S
PARIS          CLEAR     73  72  94 CALM      30.00F
HUNTINGDON     CLEAR     74  72  93 CALM      30.00S
LEXINGTON      CLEAR     73  72  94 CALM      30.00S
SAVANNAH       CLEAR     73  73 100 CALM      30.01F
$$

TNZ008-025-027-028-033-062-065-066-230800-
NORTH MIDDLE TENNESSEE

CITY           SKY/WX    TMP DP  RH WIND       PRES   REMARKS
NASHVILLE      PTCLDY    77  74  90 CALM      30.01F
DICKSON        PTCLDY    73  73 100 CALM      30.02F
PORTLAND       CLOUDY    79  72  78 CALM      30.00F
CLARKSVILLE    PTCLDY    75  72  90 CALM      30.00F
LEBANON        PTCLDY    75  72  91 CALM      30.00F
SMYRNA         PTCLDY    75  73  93 SE3       30.02S
MURFREESBORO   PTCLDY    76  72  87 CALM      30.01S
COOKEVILLE     CLEAR     72  72 100 CALM      30.04S
GALLATIN       PTCLDY    75  75 100 CALM      30.01F
CROSSVILLE     MOCLDY    72  69  90 W3        30.09S
$$

TNZ061-075-076-078-094-096-097-230800-
SOUTH MIDDLE TENNESSEE

CITY           SKY/WX    TMP DP  RH WIND       PRES   REMARKS
LEWISBURG      PTCLDY    72  70  93 CALM      30.02F
FAYETTEVILLE   CLEAR     73  70  88 CALM      30.04S
TULLAHOMA      CLEAR     72  66  83 CALM      30.06S
WINCHESTER     CLEAR     72  70  94 CALM      30.05S
MCMINNVILLE    CLEAR     72  72 100 CALM      30.04F
COLUMBIA       CLEAR     75  75 100 CALM      30.01F
SHELBYVILLE    CLEAR     73  73 100 CALM      30.04S
$$

TNZ017-018-042-046-047-230800-
NORTHEAST TENNESSEE

CITY           SKY/WX    TMP DP  RH WIND       PRES   REMARKS
TRI CITIES     MOCLDY    70  67  90 CALM      30.05F
ELIZABETHTON   MOSUNNY   64  64 100 CALM      30.05S
$$

TNZ012-013-036-069-073-074-230800-
CENTRAL EAST TENNESSEE

CITY           SKY/WX    TMP DP  RH WIND       PRES   REMARKS
KNOXVILLE      MOCLDY    75  72  90 SW3       30.01F
OAK RIDGE      MOCLDY    75  72  90 CALM      30.03S
GATLINBURG     PTSUNNY   73  70  88 CALM      30.02S
MORRISTOWN       N/A     73  72  94 NE3       30.04S
$$

TNZ083-085-099-230800-
SOUTHEAST TENNESSEE

CITY           SKY/WX    TMP DP  RH WIND       PRES   REMARKS
CHATTANOOGA    PTCLDY    77  73  87 CALM      30.02F
$$

SKY/WX REPORTED AS FAIR MEANS FEW OR NO CLOUDS BELOW
12 THOUSAND FEET.




USA.gov is the U.S. government's official web portal to all federal, state and local government web resources and services.